Location: Arbon
(43.0005°N, 0.7472°E)
Time: 01:33:49
(UTC+00:00)

Cosmos 1125 Rocket - Pass Details

Date: 07 August 2020
Orbit: 757 x 781 km, 74.0° (Epoch: 19 September)

Event Time Altitude Azimuth Distance (km) Brightness Sun altitude
Exits shadow 04:18:54 - 201° (SSW) 3,208 6.3 -6.7°
Rises 04:18:55 0° 201° (SSW) 3,206 6.3 -6.7°
Reaches altitude 10° 04:21:16 10° 202° (SSW) 2,287 5.5 -6.3°
Maximum altitude 04:26:27 82° 289° (WNW) 778 3.5 -5.5°
Drops below altitude 10° 04:31:44 10° 19° (NNE) 2,319 6.8 -4.6°
Sets 04:34:08 0° 20° (NNE) 3,254 7.6 -4.2°
